Ainsworth, NE

7:39 AM CDT on April 23, 2017 (GMT -0500)
Ainsworth Municipal

Weather History for KANW - March, 2013

Change the Weather History Date:

Friday, March 15, 2013

  Actual Average Record
Temperature  
Mean Temperature 48 °F -  
Max Temperature 59 °F 43 °F 82 °F (2015)
Min Temperature 37 °F 23 °F 10 °F (1997)
Degree Days  
Heating Degree Days 18    
Moisture  
Dew Point 34 °F    
Average Humidity 59    
Maximum Humidity 82    
Minimum Humidity 42    
Precipitation  
Precipitation 0.00 in - - ()
Sea Level Pressure  
Sea Level Pressure 29.85 in    
Wind  
Wind Speed 8 mph (NNW)    
Max Wind Speed 13 mph    
Max Gust Speed 17 mph    
Visibility 10 miles    
Events      
Averages and records for this station are not official NWS values.
T = Trace of Precipitation, MM = Missing Value Source: NWS Daily Summary

Daily Weather History Graph

Daily Weather History Graph

Search for Another Location

Airport or City:

Trip Planner

Search our weather history database for the weather conditions in past years. The results will help you decide how hot, cold, wet, or windy it might be!

Date:

Astronomy

Mar. 15, 2013 Rise Set
Actual Time 7:51 AM CDT 7:46 PM CDT
Civil Twilight 7:23 AM CDT 8:14 PM CDT
Nautical Twilight 6:50 AM CDT 8:47 PM CDT
Astronomical Twilight 6:17 AM CDT 9:21 PM CDT
Moon 9:37 AM CDT (3/15) No Moon Set
Length of Visible Light 12h 51m
Length of Day
11h 55m
Waxing Crescent, 15% of the Moon is Illuminated
Mar 15
Waxing Crescent
Mar 19
First Quarter
Mar 27
Full
Apr 2
Last Quarter
Apr 10
New

Hourly Weather History & Observations

Time (CDT) Temp. Windchill Dew Point Humidity Pressure Visibility Wind Dir Wind Speed Gust Speed Precip Events Conditions
12:15 AM 45.5 °F 40.8 °F 34.2 °F 65% 29.96 in 10.0 mi South 9.2 mph - N/A   Clear
12:35 AM 46.8 °F - 33.6 °F 60% 29.94 in 10.0 mi South 11.5 mph - N/A   Clear
12:55 AM 46.9 °F - 33.1 °F 59% 29.92 in 10.0 mi South 10.4 mph - N/A   Clear
1:15 AM 46.8 °F - 32.9 °F 59% 29.92 in 10.0 mi South 9.2 mph - N/A   Clear
1:35 AM 46.8 °F - 32.4 °F 57% 29.91 in 10.0 mi SSW 9.2 mph - N/A   Clear
1:55 AM 47.3 °F - 32.2 °F 56% 29.91 in 10.0 mi SSW 11.5 mph - N/A   Clear
2:15 AM 47.3 °F - 32.2 °F 56% 29.90 in 10.0 mi SSW 10.4 mph - N/A   Clear
2:35 AM 46.6 °F - 32.0 °F 57% 29.90 in 10.0 mi SSW 10.4 mph - N/A   Scattered Clouds
2:55 AM 47.1 °F - 32.0 °F 56% 29.89 in 10.0 mi SW 8.1 mph - N/A   Scattered Clouds
3:15 AM 47.1 °F - 32.0 °F 56% 29.89 in 10.0 mi SW 8.1 mph - N/A   Scattered Clouds
3:35 AM 45.7 °F 41.5 °F 32.2 °F 59% 29.88 in 10.0 mi SW 8.1 mph - N/A   Clear
3:55 AM 45.1 °F 40.3 °F 32.4 °F 61% 29.85 in 10.0 mi SW 9.2 mph - N/A   Clear
4:15 AM 45.7 °F 44.4 °F 32.0 °F 59% 29.84 in 10.0 mi SW 3.5 mph - N/A   Clear
4:35 AM 45.0 °F 40.6 °F 32.4 °F 61% 29.84 in 10.0 mi WSW 8.1 mph - N/A   Clear
4:55 AM 45.5 °F 41.8 °F 32.0 °F 59% 29.83 in 10.0 mi WSW 6.9 mph - N/A   Clear
5:15 AM 44.1 °F 39.5 °F 32.0 °F 63% 29.83 in 10.0 mi West 8.1 mph - N/A   Clear
5:35 AM 43.5 °F 39.4 °F 32.0 °F 64% 29.83 in 10.0 mi West 6.9 mph - N/A   Clear
5:55 AM 43.3 °F 39.2 °F 32.0 °F 64% 29.83 in 10.0 mi West 6.9 mph - N/A   Clear
6:15 AM 44.2 °F 39.2 °F 32.0 °F 62% 29.84 in 10.0 mi West 9.2 mph - N/A   Clear
6:35 AM 44.1 °F 40.1 °F 32.0 °F 63% 29.84 in 10.0 mi West 6.9 mph - N/A   Clear
6:55 AM 42.4 °F 38.1 °F 32.0 °F 67% 29.85 in 10.0 mi West 6.9 mph - N/A   Clear
7:15 AM 44.2 °F 39.7 °F 31.8 °F 62% 29.85 in 10.0 mi NW 8.1 mph - N/A   Clear
7:35 AM 41.2 °F 36.6 °F 31.1 °F 67% 29.84 in 10.0 mi West 6.9 mph - N/A   Clear
7:55 AM 41.2 °F 37.3 °F 31.1 °F 67% 29.83 in 10.0 mi West 5.8 mph - N/A   Clear
8:15 AM 39.4 °F 35.2 °F 30.4 °F 70% 29.83 in 10.0 mi West 5.8 mph - N/A   Clear
8:35 AM 41.0 °F 37.1 °F 32.0 °F 70% 29.83 in 10.0 mi WSW 5.8 mph - N/A   Clear
8:55 AM 42.1 °F 39.2 °F 32.0 °F 67% 29.83 in 10.0 mi West 4.6 mph - N/A   Clear
9:15 AM 43.0 °F 40.3 °F 32.0 °F 65% 29.83 in 10.0 mi WNW 4.6 mph - N/A   Clear
9:35 AM 45.1 °F 42.8 °F 32.9 °F 62% 29.83 in 10.0 mi NW 4.6 mph - N/A   Clear
9:55 AM 46.9 °F - 33.8 °F 60% 29.82 in 10.0 mi NW 4.6 mph - N/A   Clear
10:55 AM 50.0 °F - 33.4 °F 53% 29.83 in 10.0 mi North 9.2 mph - N/A   Clear
11:15 AM 51.4 °F - 33.4 °F 50% 29.83 in 10.0 mi NNW 6.9 mph - N/A   Clear
11:35 AM 52.0 °F - 33.8 °F 50% 29.82 in 10.0 mi North 4.6 mph - N/A   Clear
11:55 AM 53.2 °F - 34.2 °F 48% 29.81 in 10.0 mi North 3.5 mph - N/A   Clear
12:15 PM 54.3 °F - 34.5 °F 47% 29.80 in 10.0 mi NE 4.6 mph - N/A   Clear
12:35 PM 55.9 °F - 35.6 °F 46% 29.80 in 10.0 mi Calm Calm - N/A   Clear
12:55 PM 56.8 °F - 34.5 °F 43% 29.81 in 10.0 mi North 4.6 mph - N/A   Clear
1:15 PM 58.5 °F - 35.2 °F 42% 29.81 in 10.0 mi North 6.9 mph - N/A   Clear
1:35 PM 57.7 °F - 36.5 °F 45% 29.81 in 10.0 mi North 9.2 mph - N/A   Clear
1:55 PM 57.7 °F - 37.2 °F 46% 29.81 in 10.0 mi North 5.8 mph - N/A   Clear
2:15 PM 57.6 °F - 37.2 °F 47% 29.80 in 10.0 mi NE 5.8 mph - N/A   Clear
2:35 PM 58.3 °F - 37.2 °F 45% 29.80 in 10.0 mi North 6.9 mph - N/A   Clear
2:55 PM 58.3 °F - 36.5 °F 44% 29.79 in 10.0 mi NNE 4.6 mph - N/A   Clear
3:15 PM 58.6 °F - 37.0 °F 45% 29.78 in 10.0 mi NNE 4.6 mph - N/A   Clear
3:35 PM 58.5 °F - 37.4 °F 45% 29.78 in 10.0 mi NE 6.9 mph - N/A   Clear
3:55 PM 58.5 °F - 36.9 °F 45% 29.78 in 10.0 mi North 6.9 mph - N/A   Clear
4:15 PM 58.6 °F - 36.7 °F 44% 29.77 in 10.0 mi NNE 4.6 mph - N/A   Clear
4:35 PM 57.6 °F - 36.5 °F 45% 29.78 in 10.0 mi North 12.7 mph - N/A   Clear
4:55 PM 56.5 °F - 36.0 °F 46% 29.79 in 10.0 mi North 8.1 mph - N/A   Clear
5:15 PM 56.3 °F - 36.5 °F 47% 29.80 in 10.0 mi North 10.4 mph - N/A   Clear
5:35 PM 55.9 °F - 36.3 °F 48% 29.80 in 10.0 mi North 8.1 mph - N/A   Clear
5:55 PM 56.8 °F - 35.6 °F 45% 29.81 in 10.0 mi North 9.2 mph - N/A   Clear
6:15 PM 56.7 °F - 35.2 °F 45% 29.82 in 10.0 mi North 9.2 mph - N/A   Clear
6:35 PM 55.9 °F - 35.8 °F 47% 29.82 in 10.0 mi North 5.8 mph - N/A   Clear
6:55 PM 54.9 °F - 35.1 °F 47% 29.82 in 10.0 mi North 9.2 mph - N/A   Clear
7:15 PM 53.4 °F - 36.3 °F 52% 29.82 in 10.0 mi North 6.9 mph - N/A   Clear
7:35 PM 50.2 °F - 36.5 °F 59% 29.83 in 10.0 mi NNE 5.8 mph - N/A   Clear
7:55 PM 46.6 °F - 35.4 °F 65% 29.84 in 10.0 mi NE 6.9 mph - N/A   Clear
8:15 PM 44.6 °F 40.2 °F 35.6 °F 71% 29.85 in 10.0 mi North 8.1 mph - N/A   Clear
8:35 PM 43.2 °F 38.4 °F 34.7 °F 72% 29.88 in 10.0 mi NNE 8.1 mph - N/A   Clear
8:55 PM 41.9 °F 39.0 °F 34.0 °F 73% 29.89 in 10.0 mi NE 4.6 mph - N/A   Clear
9:15 PM 39.9 °F 36.7 °F 33.1 °F 77% 29.89 in 10.0 mi NNE 4.6 mph - N/A   Clear
9:35 PM 38.1 °F 34.6 °F 32.2 °F 79% 29.89 in 10.0 mi North 4.6 mph - N/A   Clear
9:55 PM 37.2 °F 34.7 °F 31.8 °F 81% 29.89 in 10.0 mi East 3.5 mph - N/A   Clear
10:15 PM 38.8 °F - 32.5 °F 78% 29.90 in 10.0 mi Calm Calm - N/A   Clear
10:35 PM 39.9 °F - 32.4 °F 74% 29.90 in 10.0 mi Calm Calm - N/A   Clear
10:55 PM 38.8 °F 35.4 °F 32.2 °F 77% 29.91 in 10.0 mi North 4.6 mph - N/A   Clear
11:15 PM 38.3 °F 35.9 °F 32.9 °F 81% 29.91 in 10.0 mi North 3.5 mph - N/A   Clear
11:35 PM 37.9 °F 32.7 °F 32.9 °F 82% 29.92 in 10.0 mi North 6.9 mph - N/A   Clear
11:55 PM 37.6 °F 30.5 °F 31.8 °F 80% 29.94 in 10.0 mi NNE 10.4 mph 17.3 mph N/A   Clear